User: anonymous   Login
Location: Albuquerque Trailhead
(34.7934°N, 106.3736°W)
Time: 15:59:06
(UTC+00:00)
Language:

SL-14 R/B - Orbit

View from above orbital plane
View from above orbital plane
View from above satellite
View from above satellite

Ground track
Ground track

The orbit data is extracted from the following two-line orbital elements,

1 33505U 09003B   21264.89083679 -.00000159  00000-0 -11557-4 0  9993
2 33505  82.3905 133.4910 0024148 230.5667 129.3426 15.10103906695849
Epoch (UTC): 21 September 2021 21:22:48
Eccentricity: 0.0024148
inclination: 82.3905°
perigee height: 519 km
apogee height: 552 km
right ascension of ascending node: 133.4910°
argument of perigee: 230.5667°
revolutions per day: 15.10103906
mean anomaly at epoch: 129.3426°
orbit number at epoch: 69584

The dashed part of the orbit path shows where the satellite is in the earth's shadow,  

DLR